WZZ121 LICC-LIEO

Flight info

Callsign WZZ121
Flight time 1h 14m
Altitude 36000
Route BUDIN DCT AMANO DCT ROXAN/N0458F350 DCT ATNET
Aircraft A321/M-SDE3FGHIRWY/LB1

Departure

Time 2026-05-07 11:49
Airport Catania-Fontanarossa Airport (LICC)

Arrival

Time 2026-05-07 13:03
Airport Olbia Costa Smeralda Airport (LIEO)
Time Latitude Longitude Altitude Speed Heading
2026-05-07 11:21 37.46939 15.06863 51 ft 0 kts 354°
2026-05-07 11:39 37.46924 15.06865 51 ft 3 kts 354°
2026-05-07 11:39 37.46905 15.06868 51 ft 3 kts 354°
2026-05-07 11:39 37.46887 15.06870 49 ft 3 kts 328°
2026-05-07 11:39 37.46875 15.06888 51 ft 2 kts 268°
2026-05-07 11:40 37.46875 15.06891 51 ft 0 kts 268°
2026-05-07 11:42 37.46875 15.06890 51 ft 1 kts 268°
2026-05-07 11:42 37.46873 15.06877 50 ft 3 kts 260°
2026-05-07 11:42 37.46867 15.06845 51 ft 5 kts 257°
2026-05-07 11:43 37.46858 15.06793 51 ft 7 kts 257°
2026-05-07 11:43 37.46850 15.06720 49 ft 9 kts 264°
2026-05-07 11:43 37.46845 15.06654 51 ft 0 kts 264°
2026-05-07 11:43 37.46844 15.06644 51 ft 0 kts 264°
2026-05-07 11:44 37.46843 15.06640 51 ft 3 kts 264°
2026-05-07 11:44 37.46839 15.06582 51 ft 10 kts 264°
2026-05-07 11:44 37.46829 15.06482 51 ft 13 kts 263°
2026-05-07 11:44 37.46822 15.06378 51 ft 9 kts 264°
2026-05-07 11:45 37.46816 15.06302 51 ft 9 kts 264°
2026-05-07 11:45 37.46810 15.06235 51 ft 7 kts 264°
2026-05-07 11:45 37.46805 15.06177 51 ft 7 kts 264°
2026-05-07 11:45 37.46799 15.06107 51 ft 9 kts 263°
2026-05-07 11:46 37.46791 15.06018 49 ft 13 kts 264°
2026-05-07 11:46 37.46780 15.05885 51 ft 18 kts 264°
2026-05-07 11:46 37.46766 15.05716 51 ft 20 kts 264°
2026-05-07 11:46 37.46751 15.05538 51 ft 21 kts 264°
2026-05-07 11:47 37.46734 15.05355 49 ft 21 kts 257°
2026-05-07 11:47 37.46682 15.05272 51 ft 0 kts 223°
2026-05-07 11:47 37.46679 15.05268 51 ft 2 kts 223°
2026-05-07 11:47 37.46663 15.05248 49 ft 5 kts 223°
2026-05-07 11:48 37.46618 15.05202 51 ft 11 kts 206°
2026-05-07 11:48 37.46564 15.05243 51 ft 10 kts 99°
2026-05-07 11:48 37.46568 15.05326 51 ft 9 kts 85°
2026-05-07 11:48 37.46586 15.05555 50 ft 58 kts 84°
2026-05-07 11:49 37.46669 15.06344 53 ft 121 kts 80°
2026-05-07 11:49 37.46755 15.07519 444 ft 134 kts 79°
2026-05-07 11:49 37.46868 15.08631 1321 ft 122 kts 78°
2026-05-07 11:49 37.47406 15.09406 2141 ft 132 kts 39°
2026-05-07 11:50 37.48478 15.09461 2523 ft 178 kts 354°
2026-05-07 11:50 37.49702 15.08878 2950 ft 195 kts 348°
2026-05-07 11:50 37.51011 15.08279 3395 ft 205 kts 348°
2026-05-07 11:50 37.52360 15.07647 3792 ft 216 kts 349°
2026-05-07 11:51 37.53782 15.06876 4163 ft 230 kts 342°
2026-05-07 11:51 37.55237 15.05917 4530 ft 240 kts 339°
2026-05-07 11:51 37.56761 15.04904 4911 ft 250 kts 339°
2026-05-07 11:51 37.58350 15.03861 5090 ft 271 kts 337°
2026-05-07 11:52 37.60114 15.02709 5450 ft 289 kts 336°
2026-05-07 11:52 37.61948 15.01508 5919 ft 305 kts 335°
2026-05-07 11:52 37.63835 15.00268 6644 ft 306 kts 333°
2026-05-07 11:52 37.65731 14.99016 7176 ft 316 kts 332°
2026-05-07 11:53 37.67693 14.97718 8044 ft 313 kts 331°
2026-05-07 11:53 37.69582 14.96472 8934 ft 310 kts 328°
2026-05-07 11:53 37.71509 14.95202 9824 ft 307 kts 328°
2026-05-07 11:53 37.73402 14.93952 10269 ft 320 kts 329°
2026-05-07 11:54 37.75442 14.92592 10418 ft 343 kts 328°
2026-05-07 11:54 37.77614 14.91143 10632 ft 361 kts 326°
2026-05-07 11:54 37.79865 14.89649 11101 ft 368 kts 327°
2026-05-07 11:54 37.82144 14.88145 11739 ft 370 kts 328°
2026-05-07 11:55 37.84428 14.86644 12397 ft 371 kts 328°
2026-05-07 11:55 37.86726 14.85132 13082 ft 373 kts 328°
2026-05-07 11:55 37.89027 14.83614 13750 ft 374 kts 327°
2026-05-07 11:55 37.91340 14.82083 14320 ft 377 kts 327°
2026-05-07 11:56 37.93670 14.80537 14893 ft 380 kts 327°
2026-05-07 11:56 37.96016 14.78980 15459 ft 382 kts 328°
2026-05-07 11:56 37.98380 14.77409 16024 ft 385 kts 328°
2026-05-07 11:56 38.00763 14.75827 16572 ft 388 kts 328°
2026-05-07 11:57 38.03162 14.74235 17093 ft 390 kts 328°
2026-05-07 11:57 38.05576 14.72630 17635 ft 393 kts 328°
2026-05-07 11:57 38.08005 14.71011 18209 ft 396 kts 328°
2026-05-07 11:57 38.10451 14.69380 18700 ft 399 kts 328°
2026-05-07 11:58 38.12913 14.67736 19200 ft 401 kts 327°
2026-05-07 11:58 38.15390 14.66084 19702 ft 403 kts 327°
2026-05-07 11:58 38.17879 14.64421 20204 ft 405 kts 327°
2026-05-07 11:58 38.20380 14.62749 20727 ft 407 kts 327°
2026-05-07 11:59 38.22894 14.61066 21205 ft 409 kts 326°
2026-05-07 11:59 38.25421 14.59374 21669 ft 412 kts 326°
2026-05-07 11:59 38.27963 14.57671 22127 ft 414 kts 326°
2026-05-07 11:59 38.30513 14.55960 22578 ft 416 kts 326°
2026-05-07 12:00 38.33078 14.54237 23021 ft 418 kts 326°
2026-05-07 12:00 38.35656 14.52505 23451 ft 420 kts 326°
2026-05-07 12:00 38.38246 14.50761 23816 ft 422 kts 325°
2026-05-07 12:00 38.40844 14.49010 24188 ft 423 kts 325°
2026-05-07 12:01 38.43416 14.47275 24563 ft 424 kts 325°
2026-05-07 12:01 38.46026 14.45514 24976 ft 425 kts 324°
2026-05-07 12:01 38.48635 14.43755 25396 ft 424 kts 324°
2026-05-07 12:01 38.51249 14.41991 25793 ft 425 kts 324°
2026-05-07 12:02 38.53866 14.40225 26164 ft 426 kts 324°
2026-05-07 12:02 38.56491 14.38453 26531 ft 427 kts 324°
2026-05-07 12:02 38.59122 14.36678 26888 ft 428 kts 323°
2026-05-07 12:02 38.61758 14.34896 27236 ft 429 kts 323°
2026-05-07 12:03 38.64399 14.33104 27583 ft 430 kts 323°
2026-05-07 12:03 38.67044 14.31303 27917 ft 431 kts 323°
2026-05-07 12:03 38.69696 14.29497 28259 ft 432 kts 323°
2026-05-07 12:03 38.72348 14.27695 28757 ft 431 kts 322°
2026-05-07 12:04 38.74993 14.25897 29170 ft 430 kts 322°
2026-05-07 12:04 38.77632 14.24099 29540 ft 430 kts 322°
2026-05-07 12:04 38.80265 14.22304 30031 ft 427 kts 322°
2026-05-07 12:04 38.82878 14.20524 30434 ft 425 kts 322°
2026-05-07 12:05 38.85484 14.18747 30772 ft 424 kts 321°
2026-05-07 12:05 38.88087 14.16972 31116 ft 423 kts 321°
2026-05-07 12:05 38.90682 14.15200 31474 ft 422 kts 321°
2026-05-07 12:05 38.93267 14.13429 31824 ft 421 kts 321°
2026-05-07 12:06 38.95842 14.11665 32254 ft 418 kts 321°
2026-05-07 12:06 38.98394 14.09919 32714 ft 413 kts 320°
2026-05-07 12:06 39.00923 14.08187 33111 ft 411 kts 320°
2026-05-07 12:06 39.03438 14.06455 33454 ft 410 kts 320°
2026-05-07 12:07 39.05948 14.04721 33778 ft 409 kts 320°
2026-05-07 12:07 39.08450 14.02994 34092 ft 408 kts 320°
2026-05-07 12:07 39.10944 14.01276 34386 ft 406 kts 320°
2026-05-07 12:07 39.13434 13.99561 34691 ft 405 kts 320°
2026-05-07 12:08 39.15909 13.97859 34990 ft 403 kts 320°
2026-05-07 12:08 39.18378 13.96162 35288 ft 401 kts 319°
2026-05-07 12:08 39.20837 13.94468 35553 ft 401 kts 319°
2026-05-07 12:08 39.23303 13.92758 35673 ft 403 kts 319°
2026-05-07 12:09 39.24938 13.91622 35765 ft 404 kts 319°
2026-05-07 12:09 39.28258 13.89316 35936 ft 406 kts 319°
2026-05-07 12:09 39.29908 13.88170 35955 ft 407 kts 319°
2026-05-07 12:10 39.34904 13.84707 35966 ft 408 kts 319°
2026-05-07 12:10 39.39898 13.81196 35969 ft 404 kts 315°
2026-05-07 12:10 39.42104 13.79064 35969 ft 389 kts 306°
2026-05-07 12:11 39.43931 13.76557 35991 ft 377 kts 298°
2026-05-07 12:11 39.45464 13.73878 35959 ft 364 kts 297°
2026-05-07 12:11 39.46955 13.71253 35961 ft 360 kts 297°
2026-05-07 12:12 39.49910 13.66051 35973 ft 358 kts 297°
2026-05-07 12:12 39.52840 13.60857 35977 ft 357 kts 296°
2026-05-07 12:13 39.55768 13.55658 35965 ft 357 kts 296°
2026-05-07 12:13 39.58696 13.50459 35975 ft 357 kts 296°
2026-05-07 12:14 39.61631 13.45250 35971 ft 358 kts 296°
2026-05-07 12:14 39.64573 13.40027 35980 ft 359 kts 296°
2026-05-07 12:15 39.67517 13.34781 35987 ft 360 kts 296°
2026-05-07 12:15 39.70461 13.29527 35990 ft 360 kts 296°
2026-05-07 12:16 39.73395 13.24268 35999 ft 359 kts 296°
2026-05-07 12:16 39.76323 13.19010 36003 ft 359 kts 296°
2026-05-07 12:17 39.79255 13.13745 36001 ft 360 kts 296°
2026-05-07 12:17 39.82194 13.08468 36012 ft 361 kts 296°
2026-05-07 12:18 39.85139 13.03178 36011 ft 361 kts 296°
2026-05-07 12:18 39.88079 12.97878 36010 ft 361 kts 296°
2026-05-07 12:19 39.91022 12.92570 36005 ft 361 kts 296°
2026-05-07 12:19 39.93953 12.87254 36014 ft 361 kts 296°
2026-05-07 12:20 39.96882 12.81934 36014 ft 361 kts 296°
2026-05-07 12:20 39.99817 12.76614 36029 ft 361 kts 296°
2026-05-07 12:21 40.02730 12.71323 36020 ft 362 kts 296°
2026-05-07 12:21 40.05658 12.65982 36019 ft 362 kts 296°
2026-05-07 12:22 40.08589 12.60636 36016 ft 362 kts 296°
2026-05-07 12:22 40.11519 12.55285 36014 ft 362 kts 296°
2026-05-07 12:23 40.14446 12.49931 36012 ft 362 kts 295°
2026-05-07 12:23 40.17365 12.44574 36009 ft 362 kts 295°
2026-05-07 12:24 40.20279 12.39208 36032 ft 362 kts 295°
2026-05-07 12:24 40.23193 12.33831 36021 ft 363 kts 295°
2026-05-07 12:25 40.26119 12.28438 36038 ft 365 kts 296°
2026-05-07 12:25 40.29061 12.23008 36010 ft 366 kts 296°
2026-05-07 12:26 40.32012 12.17562 36010 ft 367 kts 296°
2026-05-07 12:26 40.34957 12.12099 36012 ft 367 kts 296°
2026-05-07 12:27 40.37899 12.06623 36014 ft 367 kts 296°
2026-05-07 12:27 40.40841 12.01143 36040 ft 368 kts 296°
2026-05-07 12:28 40.43791 11.95647 36033 ft 369 kts 296°
2026-05-07 12:28 40.46748 11.90142 36027 ft 369 kts 296°
2026-05-07 12:29 40.49699 11.84628 36026 ft 369 kts 296°
2026-05-07 12:29 40.52642 11.79104 36020 ft 369 kts 296°
2026-05-07 12:30 40.55593 11.73569 36032 ft 370 kts 296°
2026-05-07 12:30 40.58552 11.68010 36026 ft 371 kts 296°
2026-05-07 12:31 40.61516 11.62433 36027 ft 372 kts 296°
2026-05-07 12:31 40.64484 11.56835 36017 ft 373 kts 296°
2026-05-07 12:32 40.67458 11.51220 36015 ft 374 kts 296°
2026-05-07 12:32 40.70428 11.45592 36020 ft 374 kts 296°
2026-05-07 12:33 40.74889 11.37125 36024 ft 375 kts 295°
2026-05-07 12:33 40.77860 11.31469 36027 ft 375 kts 295°
2026-05-07 12:34 40.80806 11.25778 35979 ft 374 kts 291°
2026-05-07 12:34 40.81906 11.22719 35650 ft 364 kts 282°
2026-05-07 12:34 40.82526 11.19510 35020 ft 358 kts 273°
2026-05-07 12:35 40.82674 11.16245 34359 ft 356 kts 264°
2026-05-07 12:35 40.82487 11.12971 33569 ft 360 kts 263°
2026-05-07 12:35 40.82289 11.09659 32788 ft 363 kts 263°
2026-05-07 12:35 40.82097 11.06336 32271 ft 361 kts 263°
2026-05-07 12:36 40.81913 11.03053 31787 ft 357 kts 263°
2026-05-07 12:36 40.81735 10.99796 31282 ft 354 kts 263°
2026-05-07 12:36 40.81561 10.96606 30799 ft 352 kts 263°
2026-05-07 12:36 40.81381 10.93395 30301 ft 350 kts 263°
2026-05-07 12:37 40.81197 10.90198 29758 ft 348 kts 263°
2026-05-07 12:37 40.81012 10.87028 29249 ft 345 kts 263°
2026-05-07 12:37 40.80830 10.83885 28757 ft 342 kts 263°
2026-05-07 12:37 40.80652 10.80765 28267 ft 340 kts 263°
2026-05-07 12:38 40.80473 10.77668 27781 ft 338 kts 263°
2026-05-07 12:38 40.80293 10.74585 27300 ft 336 kts 264°
2026-05-07 12:38 40.80112 10.71513 26826 ft 335 kts 264°
2026-05-07 12:38 40.79929 10.68445 26354 ft 335 kts 264°
2026-05-07 12:39 40.79745 10.65384 25888 ft 334 kts 264°
2026-05-07 12:39 40.79558 10.62327 25433 ft 334 kts 264°
2026-05-07 12:39 40.79376 10.59280 24986 ft 333 kts 264°
2026-05-07 12:39 40.79194 10.56242 24558 ft 332 kts 264°
2026-05-07 12:40 40.79011 10.53206 24108 ft 331 kts 265°
2026-05-07 12:40 40.78827 10.50181 23684 ft 331 kts 265°
2026-05-07 12:40 40.78643 10.47162 23198 ft 329 kts 265°
2026-05-07 12:40 40.78458 10.44170 22768 ft 326 kts 264°
2026-05-07 12:41 40.78277 10.41207 22337 ft 322 kts 264°
2026-05-07 12:41 40.78097 10.38273 21922 ft 319 kts 264°
2026-05-07 12:41 40.77917 10.35368 21487 ft 317 kts 264°
2026-05-07 12:41 40.77736 10.32483 21054 ft 315 kts 264°
2026-05-07 12:42 40.77553 10.29612 20619 ft 313 kts 263°
2026-05-07 12:42 40.77369 10.26753 20179 ft 312 kts 263°
2026-05-07 12:42 40.77186 10.23902 19742 ft 312 kts 263°
2026-05-07 12:42 40.77004 10.21059 19296 ft 311 kts 263°
2026-05-07 12:43 40.76821 10.18215 18855 ft 311 kts 263°
2026-05-07 12:43 40.76641 10.15398 18641 ft 303 kts 263°
2026-05-07 12:43 40.76468 10.12669 18437 ft 296 kts 262°
2026-05-07 12:43 40.76295 10.09979 18076 ft 293 kts 262°
2026-05-07 12:44 40.76122 10.07305 17652 ft 292 kts 262°
2026-05-07 12:44 40.75951 10.04640 17244 ft 291 kts 262°
2026-05-07 12:44 40.75778 10.01983 16837 ft 290 kts 262°
2026-05-07 12:44 40.75603 9.99333 16439 ft 290 kts 262°
2026-05-07 12:45 40.75427 9.96688 16042 ft 289 kts 263°
2026-05-07 12:45 40.75365 9.94049 15695 ft 288 kts 271°
2026-05-07 12:45 40.75693 9.91440 15327 ft 290 kts 283°
2026-05-07 12:45 40.76419 9.88952 14959 ft 292 kts 294°
2026-05-07 12:46 40.77518 9.86684 14593 ft 294 kts 303°
2026-05-07 12:46 40.78740 9.84519 14254 ft 294 kts 303°
2026-05-07 12:46 40.79952 9.82353 13956 ft 293 kts 303°
2026-05-07 12:46 40.81157 9.80189 13653 ft 292 kts 303°
2026-05-07 12:47 40.82353 9.78035 13377 ft 290 kts 303°
2026-05-07 12:47 40.83546 9.75883 13237 ft 291 kts 302°
2026-05-07 12:47 40.84445 9.73533 13090 ft 286 kts 283°
2026-05-07 12:47 40.84661 9.70956 12969 ft 282 kts 263°
2026-05-07 12:48 40.84196 9.68467 12734 ft 279 kts 244°
2026-05-07 12:48 40.83173 9.66301 12533 ft 279 kts 234°
2026-05-07 12:48 40.82066 9.64200 12327 ft 279 kts 235°
2026-05-07 12:48 40.80961 9.62097 12124 ft 278 kts 235°
2026-05-07 12:49 40.79863 9.60000 11921 ft 278 kts 235°
2026-05-07 12:49 40.78766 9.57906 11718 ft 277 kts 235°
2026-05-07 12:49 40.77672 9.55815 11521 ft 277 kts 235°
2026-05-07 12:49 40.76595 9.53756 11320 ft 276 kts 235°
2026-05-07 12:50 40.75505 9.51675 11130 ft 275 kts 235°
2026-05-07 12:50 40.74418 9.49599 10931 ft 275 kts 235°
2026-05-07 12:50 40.73334 9.47532 10740 ft 273 kts 235°
2026-05-07 12:50 40.72253 9.45473 10552 ft 274 kts 235°
2026-05-07 12:51 40.71173 9.43417 10359 ft 273 kts 235°
2026-05-07 12:51 40.70087 9.41353 10176 ft 274 kts 234°
2026-05-07 12:51 40.69005 9.39296 9975 ft 272 kts 235°
2026-05-07 12:51 40.67925 9.37246 9772 ft 272 kts 234°
2026-05-07 12:52 40.66847 9.35205 9572 ft 271 kts 234°
2026-05-07 12:52 40.65768 9.33162 9387 ft 272 kts 234°
2026-05-07 12:52 40.64691 9.31124 9192 ft 271 kts 234°
2026-05-07 12:52 40.63612 9.29086 9012 ft 271 kts 234°
2026-05-07 12:53 40.62540 9.27056 8795 ft 270 kts 234°
2026-05-07 12:53 40.61468 9.25028 8619 ft 269 kts 234°
2026-05-07 12:53 40.60404 9.23010 8425 ft 268 kts 234°
2026-05-07 12:53 40.59337 9.20997 8225 ft 268 kts 234°
2026-05-07 12:54 40.58329 9.18941 8050 ft 268 kts 245°
2026-05-07 12:54 40.57899 9.16571 7925 ft 269 kts 269°
2026-05-07 12:54 40.58263 9.14177 7792 ft 270 kts 294°
2026-05-07 12:54 40.59371 9.12199 7677 ft 271 kts 320°
2026-05-07 12:55 40.61021 9.11029 7550 ft 272 kts 345°
2026-05-07 12:55 40.62259 9.10815 7457 ft 272 kts
2026-05-07 12:55 40.64099 9.11342 7349 ft 272 kts 20°
2026-05-07 12:55 40.65888 9.12180 7225 ft 273 kts 20°
2026-05-07 12:56 40.67672 9.13019 7100 ft 272 kts 20°
2026-05-07 12:56 40.69387 9.14025 6996 ft 270 kts 34°
2026-05-07 12:56 40.70759 9.15710 6736 ft 270 kts 54°
2026-05-07 12:56 40.71812 9.17757 6399 ft 270 kts 56°
2026-05-07 12:57 40.72857 9.19803 6049 ft 269 kts 56°
2026-05-07 12:57 40.73902 9.21842 5701 ft 268 kts 56°
2026-05-07 12:57 40.74939 9.23832 5558 ft 258 kts 54°
2026-05-07 12:57 40.75990 9.25700 5439 ft 249 kts 53°
2026-05-07 12:58 40.77020 9.27463 5341 ft 235 kts 52°
2026-05-07 12:58 40.77975 9.29143 5203 ft 223 kts 55°
2026-05-07 12:58 40.78843 9.30753 5097 ft 206 kts 56°
2026-05-07 12:58 40.79615 9.32212 4968 ft 183 kts 56°
2026-05-07 12:59 40.80303 9.33533 4787 ft 166 kts 56°
2026-05-07 12:59 40.80935 9.34743 4503 ft 156 kts 56°
2026-05-07 12:59 40.81542 9.35901 4161 ft 150 kts 57°
2026-05-07 12:59 40.82124 9.37010 3827 ft 145 kts 58°
2026-05-07 13:00 40.82689 9.38084 3760 ft 141 kts 58°
2026-05-07 13:00 40.83270 9.39160 3669 ft 145 kts 55°
2026-05-07 13:00 40.83868 9.40237 3340 ft 145 kts 57°
2026-05-07 13:00 40.84404 9.41349 2943 ft 143 kts 60°
2026-05-07 13:01 40.84953 9.42428 2577 ft 139 kts 56°
2026-05-07 13:01 40.85522 9.43465 2088 ft 142 kts 57°
2026-05-07 13:01 40.86054 9.44542 1648 ft 139 kts 56°
2026-05-07 13:01 40.86611 9.45595 1343 ft 140 kts 52°
2026-05-07 13:02 40.87183 9.46611 1024 ft 142 kts 58°
2026-05-07 13:02 40.87722 9.47678 691 ft 138 kts 54°
2026-05-07 13:02 40.88266 9.48703 486 ft 137 kts 53°
2026-05-07 13:02 40.88809 9.49740 316 ft 137 kts 55°
2026-05-07 13:03 40.89344 9.50778 55 ft 136 kts 56°
2026-05-07 13:03 40.89838 9.51691 33 ft 103 kts 52°
2026-05-07 13:03 40.90173 9.52343 35 ft 71 kts 55°
2026-05-07 13:03 40.90381 9.52745 34 ft 36 kts 56°
2026-05-07 13:04 40.90511 9.52923 34 ft 21 kts 356°
2026-05-07 13:04 40.90574 9.52806 34 ft 18 kts 262°
2026-05-07 13:04 40.90533 9.52650 34 ft 19 kts 241°
2026-05-07 13:04 40.90459 9.52506 34 ft 19 kts 234°
2026-05-07 13:05 40.90382 9.52356 34 ft 20 kts 235°
2026-05-07 13:05 40.90300 9.52201 34 ft 21 kts 236°
2026-05-07 13:05 40.90217 9.52042 34 ft 19 kts 235°
2026-05-07 13:05 40.90179 9.51891 34 ft 17 kts 275°
2026-05-07 13:06 40.90215 9.51784 34 ft 10 kts 292°
2026-05-07 13:06 40.90208 9.51703 34 ft 8 kts 296°
2026-05-07 13:06 40.90236 9.51672 34 ft 1 kts 324°
2026-05-07 13:06 40.90240 9.51669 34 ft 0 kts 325°